TimeCDT,TemperatureF,Dew PointF,Humidity,Sea Level PressureIn,VisibilityMPH,Wind Direction,Wind SpeedMPH,Gust SpeedMPH,PrecipitationIn,Events,Conditions,WindDirDegrees,DateUTC
12:52 AM,60.1,48.9,67,30.05,10.0,ESE,4.6,-,N/A,,Clear,110,2013-09-27 05:52:00
1:52 AM,57.9,48.9,72,30.06,10.0,ESE,5.8,-,N/A,,Clear,110,2013-09-27 06:52:00
2:52 AM,57.0,48.0,72,30.06,10.0,ESE,5.8,-,N/A,,Clear,110,2013-09-27 07:52:00
3:52 AM,57.0,48.0,72,30.06,10.0,SE,6.9,-,N/A,,Clear,140,2013-09-27 08:52:00
4:52 AM,57.0,48.0,72,30.08,10.0,SE,6.9,-,N/A,,Clear,130,2013-09-27 09:52:00
5:52 AM,57.0,48.0,72,30.09,10.0,SE,6.9,-,N/A,,Mostly Cloudy,130,2013-09-27 10:52:00
6:52 AM,57.0,48.0,72,30.10,10.0,SE,6.9,-,N/A,,Scattered Clouds,130,2013-09-27 11:52:00
7:52 AM,59.0,48.9,69,30.11,10.0,SE,6.9,-,N/A,,Clear,140,2013-09-27 12:52:00
8:52 AM,64.9,50.0,58,30.11,10.0,SE,10.4,-,N/A,,Clear,140,2013-09-27 13:52:00
9:52 AM,72.0,51.1,48,30.09,10.0,SSE,10.4,-,N/A,,Clear,150,2013-09-27 14:52:00
10:52 AM,75.9,55.9,50,30.09,10.0,SSE,9.2,-,N/A,,Clear,150,2013-09-27 15:52:00
11:52 AM,79.0,59.0,50,30.08,10.0,SE,8.1,17.3,N/A,,Clear,130,2013-09-27 16:52:00
12:52 PM,82.0,57.9,44,30.06,10.0,SSE,11.5,18.4,N/A,,Clear,160,2013-09-27 17:52:00
1:52 PM,82.0,57.0,42,30.04,10.0,South,8.1,20.7,N/A,,Clear,170,2013-09-27 18:52:00
2:52 PM,82.9,55.0,38,30.02,10.0,South,13.8,20.7,N/A,,Clear,190,2013-09-27 19:52:00
3:52 PM,82.9,51.1,33,30.00,10.0,SE,12.7,21.9,N/A,,Clear,140,2013-09-27 20:52:00
4:52 PM,82.0,48.9,31,29.99,10.0,SSE,11.5,19.6,N/A,,Clear,150,2013-09-27 21:52:00
5:52 PM,80.1,50.0,35,29.99,10.0,SSE,12.7,18.4,N/A,,Clear,150,2013-09-27 22:52:00
6:52 PM,73.9,50.0,43,30.00,10.0,SSE,5.8,-,N/A,,Clear,150,2013-09-27 23:52:00
7:52 PM,66.9,51.1,57,30.00,10.0,SE,8.1,-,N/A,,Clear,140,2013-09-28 00:52:00
8:52 PM,66.0,48.9,54,30.01,10.0,SE,8.1,-,N/A,,Clear,140,2013-09-28 01:52:00
9:52 PM,66.9,48.0,51,30.01,10.0,SSE,6.9,-,N/A,,Clear,160,2013-09-28 02:52:00
10:52 PM,66.9,48.0,51,30.00,10.0,SSE,8.1,-,N/A,,Clear,160,2013-09-28 03:52:00
11:52 PM,66.9,48.9,52,30.00,10.0,SSE,9.2,-,N/A,,Clear,160,2013-09-28 04:52:00